Home   Weather   Doha   Past weeks

Flag for Qatar Past Weather in Doha, Qatar — Yesterday and Last 2 Weeks

Now
88 °F

Clear.


Feels Like: 87 °F
Forecast: 80 / 95 °F
Wind: 10 mph from Northwest

Location: Doha International Airport

Current Time: Oct 1, 2016 at 8:14:24 PM

Latest Report: Oct 1, 2016 at 7:00 PM


Visibility: 10 mi

Pressure: 29.74 "Hg

Humidity: 38%

Dew Point: 59 °F

Location of DohaLocation

Past Weather in Doha — Graph

°F

Doha Temperature Yesterday

Maximum temperature yesterday: 99 °F (at 12:00 PM)
Minimum temperature yesterday: 84 °F (at 9:00 PM)
Average temperature yesterday: 90 °F

High & Low Weather Summary for the Past Weeks

 TemperatureHumidityPressure
High108 °F (Sep 23, 12:00 PM)89% (Sep 23, 4:00 AM)29.83 "Hg (Sep 23, 4:00 AM)
Low82 °F (Sep 28, 3:00 AM)15% (Sep 20, 4:00 PM)29.59 "Hg (Sep 17, 4:00 PM)
Average93 °F49%29.69 "Hg
* Reported Sep 16 7:00 PM — Oct 1 7:00 PM, Doha, Weather by CustomWeather, © 2016

Note: Actual official high and low records may vary slightly from our data, if they occured in-between our weather recording intervals... More about our weather records

Advertising

Doha Weather History for the Previous 24 Hours

Scroll right to see more
 ConditionsComfort  
Time TempWeatherWind HumidityBarometerVisibility
7:00 PM
Sat, Oct 1
88 °FClear.10 mph38%29.74 "Hg10 mi
6:00 PM90 °FClear.12 mph36%29.71 "Hg10 mi
5:00 PM91 °FSunny.10 mph32%29.71 "Hg10 mi
4:00 PM93 °FClear.13 mph32%29.68 "Hg5 mi
3:00 PM91 °FClear.16 mph44%29.71 "Hg5 mi
2:00 PM93 °FSunny.16 mph41%29.71 "Hg10 mi
1:00 PM93 °FSunny.14 mph39%29.71 "Hg10 mi
12:00 PM91 °FSunny.14 mph41%29.71 "Hg10 mi
11:00 AM93 °FPassing clouds.12 mph34%29.74 "HgN/A
10:00 AM93 °FSunny.16 mph32%29.74 "Hg10 mi
9:00 AM90 °FClear.12 mph43%29.74 "Hg5 mi
8:00 AM88 °FClear.10 mph46%29.74 "Hg5 mi
7:00 AM84 °FClear.10 mph48%29.71 "Hg6 mi
6:00 AM82 °FClear.9 mph51%29.71 "Hg4 mi
5:00 AM82 °FClear.8 mph51%29.68 "Hg6 mi
4:00 AM82 °FClear.12 mph51%29.68 "Hg6 mi
3:00 AM82 °FClear.9 mph51%29.68 "Hg6 mi
2:00 AM82 °FClear.8 mph45%29.68 "Hg10 mi
1:00 AM84 °FClear.8 mph40%29.68 "Hg6 mi
12:00 AM84 °FClear.12 mph43%29.71 "Hg6 mi
11:00 PM
Fri, Sep 30
84 °FClear.12 mph43%29.71 "Hg4 mi
10:00 PM84 °FClear.13 mph48%29.71 "Hg4 mi
9:00 PM84 °FClear.15 mph48%29.71 "Hg4 mi
8:00 PM86 °FClear.13 mph46%29.71 "Hg5 mi
Weather by CustomWeather, © 2016

See weather overviewHow to use our weather pages